OBJECT E, 68631

Orbit data source: Space-Track

You're viewing an Uncataloged Satellite

Recently launched and/or uncataloged satellites may have evolving metadata. Metadata may include but not limited to: Owner, Maufacturer, Bus, Motor, and Mission.

OBJECT E, 68631 is a satellite owned by USSF SMC (US) in LEO that was launched on Tue, 07 Apr 2026 UTC via an MINOTAUR IV launch vehicle from the Air Force Western Test Range (AFWTR). Unknown objects in Earth's orbit typically refer to objects detected orbiting the Earth but have not yet been identified or cataloged. These objects could be anything from previously untracked satellites, spent rocket stages, debris from satellite collisions, or even natural meteoroids temporarily captured by Earth's gravity.

Loading next visibility...
Identifier
68631, 2026-074E
Orbit
LEO
Country
Flag of USUS
Related business
Manufacturer
NGIS FSG
Mission
Operational spacecraft
Bus & Motor
ORION 38, Unknown motor
Mass
~500 kg wet, ~500 kg dry
Launch date (UTC)
2026-04-07 (2 months ago)
Launch vehicle
MINOTAUR IV
Launch site
Air Force Western Test Range (AFWTR)
Object type
Unknown
Shape & HBR
Unknown shape, 1.1 m
Radar Cross Section
RCS unknown

Expand to show TLE details & history
Last TLE update: 2 days ago

TLE from 2 days ago
0 OBJECT E
1 68631U 26074E   26143.50785001  .00003063  00000-0  13504-3 0  9993
2 68631  60.0209 272.8512 0023960   6.6560 353.4834 15.24315458  7020
Epoch: 2026-05-23T12:11Z
TLE epoch observation values (Epoch: 2026-05-23T12:11:18.240Z)
Latitude
-0.00004°
Longitude
-151.09817°
Altitude
478.086 km
Speed
7.637 km/s
True Right ascension
18h 11m 24s
True Declination
0° 00' 00"
Sunlit
Object was in full shadow at epoch
Visualization orbit readout
Latitude
Unknown
Longitude
Unknown
Altitude
Unknown
Speed
Unknown
Apparent Right ascension
Unknown
Apparent Declination
Unknown
Sunlit
N/A
Visualization observer readout
Local Sidereal Time
09:40:11
Azimuth
Unknown
Elevation
Unknown
Doppler factor
Unknown
Orbital elements
Apogee altitude
508.503 km
Perigee altitude
475.581 km
Semi-major axis
6,870.179 km
Eccentricity
0.0024
Inclination
60.0209°
RAAN
272.8512°
Arg. of periapsis
6.656°
True anomaly
353.45215°
Mean anomaly
353.4834°
Eccentric anomaly
353.46778°
Mean motion
3.81146 °/min
Orbital period
94.45 mins
BSTAR
0.00013504
Loading maneuver chart data...
Computing Atmospheric mass density...
Loading historical data...
Loading historical data...
Loading historical data...
Loading historical data...
Loading historical data...
Loading historical data...
Loading historical data...

Documentation

Showing up to 5 results
|